Find Starlink 32691

NORAD ID: 62501 Int'l Des: 2025-003 Owner: SPXS Country: US Constellation: starlink operational
LEOCIRCULAR

リアルタイム位置

3D地球を読み込み中...

Starlink 32691について

説明を読み込み中...

次回通過

Passes for default location (London). Set your location on the main map for personalized predictions.

高度履歴

Loading altitude history...

軌道要素

1 62501U 25003Q 26124.60592120 .00001400 00000-0 60391-4 0 9992
2 62501 43.0005 333.1435 0001332 277.5191 82.5509 15.27578298 75219
Epoch: May 4, 2026 • Age: 6 hours

現在のステータス

高度 485.5 km
速度 7.62 km/s
衛星直下点 -13.98°S, 2.65°E
打ち上げ日 Jan 6, 2025
運用期間 1.3 years
タイプ internet

技術仕様

分類 Payload
質量 730.00 kg
乾燥質量 700.00 kg
総質量 730.00 kg
長さ 0.30 m
直径 4.10 m
スパン 29.00 m
形状 Box + pan
製造者 SPXS
バスタイプ Starlink V2M
フェーズステータス In Orbit
所有者/国 SPXS/US

Most Searched